Lid_Strength_Index
14 15 14 15 15 15 15 15 15 16 16 17 17 18 18 18 18 19 18 19 19 19
15 15 15 16 16 15 15 15 16 16 17 17 17 18 18 18 18 19 18 19 19 19
14 14 15 17 16 15 15 15 17 16 16 17 18 18 18 19 19 19 19 19 19 20
15 15 16 16 15 15 15 16 16 16 16 17 17 18 18 19 19 19 20 20 20 20
16 16 16 15 15 15 15 16 16 16 17 17 17 18 18 19 19 20 20 20 20 20
16 16 14 14 14 15 15 16 16 16 17 17 17 18 18 18 19 19 20 19 20 20
16 15 14 14 15 16 16 16 16 16 17 17 17 17 18 18 19 19 19 20 20 20
14 14 14 15 16 16 16 16 16 16 17 16 17 17 18 18 19 19 20 20 20 20
14 14 15 16 15 16 17 16 16 17 17 17 17 15 15 17 18 19 20 21 21 21
14 15 15 16 16 16 17 17 17 17 17 18 17 15 14 15 18 19 20 20 21 21
15 15 15 16 16 16 17 17 17 18 17 18 18 14 13 14 18 18 19 19 20 20
15 15 16 16 17 17 17 17 17 17 17 18 18 15 13 14 18 18 19 19 19 19
15 15 16 15 16 16 17 17 17 17 17 18 18 15 12 13 18 19 19 19 18 17
14 14 15 17 19 19 17 17 18 18 18 18 18 16 12 12 17 19 19 19 19 18